Find Starlink 32924

NORAD ID: 63092 Int'l Des: 2025-037 Owner: SPXS Country: US Constellation: starlink operational
LEOCIRCULAR

Live Position

Loading 3D Globe...

About Starlink 32924

Description loading...

Upcoming Passes

Passes for default location (London). Set your location on the main map for personalized predictions.

Altitude History

Loading altitude history...

Two-Line Element Set

1 63092U 25037R 26122.42304222 .00000445 00000-0 45062-4 0 9993
2 63092 70.0020 218.8594 0003318 270.1071 89.9708 14.98331229 66657
Epoch: May 2, 2026 • Age: 6 hours

Current Status

Altitude 595.1 km
Velocity 7.56 km/s
Sub-Earth Point -69.31°S, 9°E
Launch Date Feb 23, 2025
Age 1.1 years
Type internet

Technical Details

Classification Payload
Mass 730.00 kg
Dry Mass 700.00 kg
Total Mass 730.00 kg
Length 0.30 m
Diameter 4.10 m
Span 29.00 m
Shape Box + pan
Manufacturer SPXS
Bus Type Starlink V2M
Phase Status In Orbit
Owner/State SPXS/US

Most Searched